Date String (YYYY-MM-DD hh:mm:ss) UTC,Instrument flags,absolute air pressure of the measurement (hPa),sample flow rate (lpm),inlet stack bypass flow (lpm),air temperature of the measurement (°C),ambient temperature measured by the external sensor (°C),aerosol sample conditioner tube jacket temperature (°C),OPC LED temperature (°C),internal box temperature (°C),relative humidity of the measurement (%),span deviation,mass concentration of particles derived from Lorenz-Mie calculation of OPC scattering (μg/m³),mass concentration of particles derived from Lorenz-Mie calculation of OPC scattering (μg/m³),mass concentration of particles derived from Lorenz-Mie calculation of OPC scattering (μg/m³)
DateTimeUTC,F1_M11,P_M11,Q1_M11,Q2_M11,T1_M11,T2_M11,T3_M11,T4_M11,T5_M11,U1_M11,ZSPAN_M11,X2_M11,X0_M11,X1_M11
2024-03-26 16:00:00,SystemResetWarning,0820.3,5.00,000.00,018.5,018.1,000.0,027.0,020.3,15.5,0002.1,0010.87,0015.78,0010.46
2024-03-26 16:01:00,SystemResetWarning,0820.3,5.01,000.00,018.5,018.1,000.0,027.0,020.3,15.6,0002.9,0010.91,0015.18,0010.47
2024-03-26 16:02:00,SystemResetWarning,0820.3,5.00,000.00,018.5,018.1,000.0,027.0,020.3,15.7,0003.2,0010.92,0015.41,0010.47
2024-03-26 16:03:00,SystemResetWarning,0820.3,4.99,000.00,018.5,018.1,000.0,027.0,020.3,15.6,0003.3,0010.93,0015.21,0010.46
2024-03-26 16:04:00,SystemResetWarning,0820.2,5.00,000.00,018.5,018.1,000.0,027.0,020.3,15.3,0003.5,0010.95,0015.75,0010.45
2024-03-26 16:05:00,SystemResetWarning,0820.3,5.01,000.00,018.5,018.1,000.0,027.0,020.3,15.3,0003.6,0010.93,0016.23,0010.42
2024-03-26 16:06:00,SystemResetWarning,0820.3,5.01,000.00,018.5,018.1,000.0,027.0,020.3,15.3,0003.5,0010.87,0016.47,0010.39
2024-03-26 16:07:00,SystemResetWarning,0820.3,5.00,000.00,018.5,018.1,000.0,027.0,020.3,15.6,0003.5,0010.87,0016.76,0010.39
2024-03-26 16:08:00,SystemResetWarning,0820.3,4.99,000.00,018.5,018.1,000.0,027.0,020.3,15.7,0003.6,0010.86,0017.13,0010.38
2024-03-26 16:09:00,SystemResetWarning,0820.4,4.99,000.00,018.6,018.1,000.0,027.0,020.3,15.6,0003.8,0010.84,0017.08,0010.37
2024-03-26 16:10:00,SystemResetWarning,0820.3,5.01,000.00,018.6,018.1,000.0,027.0,020.3,15.4,0003.7,0010.83,0016.63,0010.34
2024-03-26 16:11:00,SystemResetWarning,0820.4,5.01,000.00,018.6,018.1,000.0,027.0,020.3,15.3,0003.4,0010.79,0016.99,0010.31
2024-03-26 16:12:00,SystemResetWarning,0820.3,5.01,000.00,018.6,018.1,000.0,027.0,020.4,15.4,0002.9,0010.72,0017.63,0010.28
2024-03-26 16:13:00,SystemResetWarning,0820.6,5.01,000.00,018.6,018.2,000.0,027.0,020.4,15.3,0002.7,0010.67,0017.19,0010.23
2024-03-26 16:14:00,SystemResetWarning,0820.4,5.00,000.00,018.6,018.2,000.0,027.0,020.4,15.2,0002.7,0010.65,0016.95,0010.19
2024-03-26 16:15:00,SystemResetWarning,0820.5,4.99,000.00,018.6,018.2,000.0,027.0,020.4,15.4,0002.4,0010.55,0016.55,0010.12
2024-03-26 16:16:00,SystemResetWarning,0820.4,4.99,000.00,018.6,018.2,000.0,027.0,020.4,15.4,0002.3,0010.51,0016.85,0010.09
2024-03-26 16:17:00,SystemResetWarning,0820.6,5.01,000.00,018.6,018.2,000.0,027.1,020.4,15.6,0002.3,0010.54,0016.68,0010.11
2024-03-26 16:18:00,SystemResetWarning,0820.8,5.01,000.00,018.6,018.2,000.0,027.1,020.4,15.6,0002.3,0010.49,0016.18,0010.07
2024-03-26 16:19:00,SystemResetWarning,0820.9,5.00,000.00,018.6,018.2,000.0,027.1,020.4,15.4,0002.1,0010.41,0015.06,0010.04
2024-03-26 16:20:00,SystemResetWarning,0820.7,5.00,000.00,018.6,018.2,000.0,027.1,020.4,15.2,0001.5,0010.35,0014.96,0010.02
2024-03-26 16:21:00,SystemResetWarning,0820.7,5.00,000.00,018.6,018.2,000.0,027.1,020.4,15.2,0001.4,0010.32,0015.00,0010.00
2024-03-26 16:22:00,SystemResetWarning,0820.6,4.99,000.00,018.7,018.2,000.0,027.1,020.4,15.2,0000.8,0010.31,0014.64,0009.97
2024-03-26 16:23:00,SystemResetWarning,0820.7,5.00,000.00,018.7,018.2,000.0,027.1,020.4,15.2,0000.5,0010.28,0013.93,0009.95
2024-03-26 16:24:00,SystemResetWarning,0820.8,4.99,000.00,018.7,018.2,000.0,027.1,020.4,15.2,0000.2,0010.25,0014.07,0009.95
2024-03-26 16:25:00,SystemResetWarning,0820.8,5.00,000.00,018.7,018.2,000.0,027.1,020.5,15.3,0000.2,0010.24,0014.78,0009.95
2024-03-26 16:26:00,SystemResetWarning,0820.7,5.00,000.00,018.7,018.3,000.0,027.1,020.5,15.6,0000.7,0010.24,0015.02,0009.96
2024-03-26 16:27:00,SystemResetWarning,0820.8,5.01,000.00,018.7,018.3,000.0,027.1,020.5,15.8,0000.6,0010.24,0014.14,0009.96
2024-03-26 16:28:00,SystemResetWarning,0820.8,5.01,000.00,018.7,018.3,000.0,027.1,020.5,15.6,0000.0,0010.18,0013.66,0009.93
2024-03-26 16:29:00,SystemResetWarning,0821.0,5.01,000.00,018.7,018.3,000.0,027.1,020.5,15.2,0000.1,0010.15,0013.67,0009.91
2024-03-26 16:30:00,SystemResetWarning,0820.6,5.00,000.00,018.7,018.3,000.0,027.1,020.5,15.0,0000.0,0010.13,0013.64,0009.88
2024-03-26 16:31:00,SystemResetWarning,0820.8,4.99,000.00,018.7,018.3,000.0,027.1,020.5,15.0,0000.0,0010.12,0013.79,0009.85
2024-03-26 16:32:00,SystemResetWarning,0820.9,5.01,000.00,018.7,018.3,000.0,027.1,020.5,14.9,0000.0,0010.12,0014.43,0009.84
2024-03-26 16:33:00,SystemResetWarning,0821.0,5.00,000.00,018.7,018.3,000.0,027.1,020.5,15.0,0000.0,0010.07,0014.33,0009.83
2024-03-26 16:34:00,SystemResetWarning,0820.7,5.00,000.00,018.8,018.3,000.0,027.1,020.5,15.1,0000.0,0010.08,0014.35,0009.82
2024-03-26 16:35:00,SystemResetWarning,0820.5,5.00,000.00,018.8,018.3,000.0,027.2,020.5,15.1,0000.7,0010.08,0014.05,0009.83
2024-03-26 16:36:00,SystemResetWarning,0820.5,4.98,000.00,018.8,018.4,000.0,027.2,020.5,15.1,0001.3,0010.12,0013.95,0009.85
2024-03-26 16:37:00,SystemResetWarning,0820.5,5.00,000.00,018.8,018.4,000.0,027.2,020.5,15.3,0001.3,0010.17,0013.00,0009.88
2024-03-26 16:38:00,SystemResetWarning,0820.5,5.01,000.00,018.8,018.4,000.0,027.2,020.6,15.6,0001.1,0010.29,0013.18,0009.97
2024-03-26 16:39:00,SystemResetWarning,0820.5,5.01,000.00,018.8,018.4,000.0,027.2,020.6,15.5,0001.7,0010.39,0013.30,0010.08
2024-03-26 16:40:00,SystemResetWarning,0820.5,5.00,000.00,018.8,018.4,000.0,027.2,020.6,15.7,0001.7,0010.49,0013.41,0010.18
2024-03-26 16:41:00,SystemResetWarning,0820.6,5.00,000.00,018.8,018.4,000.0,027.2,020.6,15.6,0001.5,0010.65,0013.68,0010.32
2024-03-26 16:42:00,SystemResetWarning,0820.6,5.00,000.00,018.8,018.4,000.0,027.2,020.6,15.6,0001.6,0010.80,0014.31,0010.45
2024-03-26 16:43:00,SystemResetWarning,0820.5,5.00,000.00,018.8,018.4,000.0,027.2,020.6,15.6,0001.3,0010.97,0014.07,0010.58
2024-03-26 16:44:00,SystemResetWarning,0820.5,5.00,000.00,018.8,018.4,000.0,027.2,020.6,15.3,0000.8,0011.06,0014.29,0010.64
2024-03-26 16:45:00,SystemResetWarning,0820.5,4.99,000.00,018.9,018.4,000.0,027.2,020.6,15.4,0000.9,0011.07,0014.32,0010.67
2024-03-26 16:46:00,SystemResetWarning,0820.5,5.00,000.00,018.9,018.4,000.0,027.2,020.6,15.5,0000.8,0011.14,0014.69,0010.73
2024-03-26 16:47:00,SystemResetWarning,0820.6,5.00,000.00,018.9,018.5,000.0,027.2,020.7,15.8,0000.8,0011.22,0015.07,0010.84
2024-03-26 16:48:00,SystemResetWarning,0820.6,5.00,000.00,018.9,018.5,000.0,027.3,020.7,15.7,0000.5,0011.31,0016.05,0010.96
2024-03-26 16:49:00,SystemResetWarning,0820.6,5.00,000.00,018.9,018.5,000.0,027.3,020.7,15.5,0000.3,0011.39,0016.21,0011.02
2024-03-26 16:50:00,SystemResetWarning,0820.6,5.01,000.00,018.9,018.5,000.0,027.3,020.7,15.5,0000.0,0011.47,0016.34,0011.06
2024-03-26 16:51:00,SystemResetWarning,0820.5,5.00,000.00,018.9,018.5,000.0,027.3,020.7,15.5,-000.4,0011.51,0016.78,0011.08
2024-03-26 16:52:00,SystemResetWarning,0820.6,5.00,000.00,018.9,018.5,000.0,027.3,020.7,15.4,-000.9,0011.43,0016.64,0011.02
2024-03-26 16:53:00,SystemResetWarning,0820.6,5.00,000.00,018.9,018.6,000.0,027.3,020.7,15.4,-001.0,0011.35,0016.06,0010.97
2024-03-26 16:54:00,SystemResetWarning,0820.5,5.00,000.00,018.9,018.6,000.0,027.3,020.7,15.5,-001.2,0011.29,0015.77,0010.95
2024-03-26 16:55:00,SystemResetWarning,0820.5,5.00,000.00,019.0,018.6,000.0,027.3,020.7,15.5,-000.7,0011.33,0016.02,0010.99
2024-03-26 16:56:00,SystemResetWarning,0820.6,5.00,000.00,019.0,018.6,000.0,027.3,020.8,15.7,-000.3,0011.41,0016.31,0011.06
2024-03-26 16:57:00,SystemResetWarning,0820.6,5.00,000.00,019.0,018.6,000.0,027.3,020.8,15.7,0000.0,0011.44,0016.95,0011.09
2024-03-26 16:58:00,SystemResetWarning,0820.6,4.99,000.00,019.0,018.6,000.0,027.3,020.8,15.8,0000.3,0011.46,0017.15,0011.08
2024-03-26 16:59:00,SystemResetWarning,0820.5,5.02,000.00,019.0,018.6,000.0,027.4,020.8,15.9,0000.8,0011.48,0016.27,0011.08
